Tracking 21092 objects as of 14-Aug-2020
HD Live streaming from Space Station
objects crossing your sky now
Track the most recent launched group of Starlink satellites

SL-14 R/B

Track SL-14 R/B now!
10-day predictions


NORAD ID: 15370
Int'l Code: 1984-111B
Perigee: 610.6 km
Apogee: 638.9 km
Inclination: 82.5 °
Period: 97.1 minutes
Semi major axis: 6995 km
RCS: 4.088 m2 (large)
Launch date: October 18, 1984
Source: Commonwealth of Independent States (former USSR) (CIS)
Launch site: PLESETSK MISSILE AND SPACE COMPLEX (PKMTR)

Note: This is a ROCKET BODY
aabbcc
Your satellite tracking list
Your tracking list is empty




NASA's NSSDC Master Catalog

Two Line Element Set (TLE):
1 15370U 84111B   20226.85030824 +.00000056 +00000-0 +38016-5 0  9997
2 15370 082.5180 005.9089 0020183 205.9339 154.0867 14.83723751914138
Source of the keplerian elements: AFSPC